Location: Las Vegas
(36.1750°N, 115.1360°W)
Time: 17:10:27
(UTC-07:00)

Amateur Radio Satellites - All Passes

Search period start: 28 August 2016 16:40
Search period end: 29 August 2016 16:40
Location: Las Vegas, 36.1750°N, 115.1360°W

Satellite Date Start Highest point End Downlink Frequencies (MHz)
Time Altitude Azimuth
ISS 28 Aug 16:40:36 16:42:16 13° 232° (SW) 16:43:56 145.825
AO-7 28 Aug 16:41:52 16:49:11 33° 262° (W) 16:56:32 29.400- 29.500
YUBILEINY 28 Aug 16:42:40 16:50:41 38° 75° (ENE) 16:58:34 435.215
ITUPSAT 1 28 Aug 16:47:59 16:49:09 11° 298° (WNW) 16:50:19 437.325
BRITE-PL 28 Aug 16:51:37 16:55:39 27° 68° (ENE) 16:59:57 437.365/2234.400
Cubesat XI-IV 28 Aug 16:56:09 16:59:09 15° 63° (ENE) 17:02:10 437.490
NOAA 15 28 Aug 17:04:11 17:08:18 24° 66° (ENE) 17:12:25 137.62
CUTE-I 28 Aug 17:06:48 17:10:32 20° 65° (ENE) 17:14:17 437.470
CUBESAT XI-V 28 Aug 17:24:14 17:28:38 38° 98° (E) 17:33:00 437.345
KKS-1 28 Aug 17:25:17 17:29:12 30° 290° (WNW) 17:33:04 437.445
LilacSat-2 28 Aug 17:30:59 17:34:06 24° 71° (ENE) 17:37:14 437.200
BEESAT 3 28 Aug 17:36:12 17:39:01 18° 50° (NE) 17:41:48 437.485
MOZHAYETS 4 28 Aug 17:39:34 17:42:34 18° 293° (WNW) 17:45:35
HORYU 2 28 Aug 17:42:53 17:46:47 29° 263° (W) 17:50:42 437.375
NOAA 18 28 Aug 17:54:05 17:59:25 51° 72° (ENE) 18:04:46 137.9125
STARS 28 Aug 17:58:21 18:02:04 27° 290° (WNW) 18:05:44 437.465
GOMX 1 28 Aug 17:59:10 18:04:06 59° 74° (ENE) 18:09:22 467.674
DOVE 4 28 Aug 18:01:03 18:05:25 28° 69° (ENE) 18:09:54 437.250
Cosmos 2504 28 Aug 18:11:25 18:18:18 46° 78° (ENE) 18:25:08 435.465 / 435.565
Cosmos 2491 28 Aug 18:16:11 18:24:53 84° 94° (E) 18:33:41 435.465 / 435.565
BRITE-PL 28 Aug 18:29:45 18:33:58 30° 265° (W) 18:38:30 437.365/2234.400
Cubesat XI-IV 28 Aug 18:33:22 18:38:39 63° 258° (WSW) 18:43:58 437.490
CINEMA 3 28 Aug 18:35:03 18:38:17 17° 67° (ENE) 18:41:29 145.822/145.860
YUBILEINY 28 Aug 18:39:24 18:47:25 42° 273° (W) 18:55:22 435.215
NOAA 15 28 Aug 18:42:58 18:47:48 38° 262° (W) 18:52:42 137.62
CUTE-I 28 Aug 18:45:04 18:50:12 47° 260° (W) 18:55:21 437.470
BEESAT 2 28 Aug 18:57:01 19:01:01 70° 58° (ENE) 19:04:59 435.950
CANX-2 28 Aug 19:00:31 19:03:45 22° 70° (ENE) 19:07:01 2200.000
CUBESAT XI-V 28 Aug 19:02:23 19:05:41 19° 293° (WNW) 19:09:00 437.345
LilacSat-2 28 Aug 19:05:33 19:08:21 19° 265° (W) 19:11:09 437.200
CUTE 1.7 + AOD 2 28 Aug 19:06:22 19:09:38 22° 70° (ENE) 19:12:53 437.475
STRAND 1 28 Aug 19:11:23 19:15:35 25° 96° (E) 19:19:47 437.568
BEESAT 3 28 Aug 19:13:09 19:16:46 34° 246° (WSW) 19:20:21 437.485
COMPASS 1 28 Aug 19:15:13 19:17:06 13° 66° (ENE) 19:18:59 437.405
HO-68 28 Aug 19:28:02 19:35:05 62° 70° (ENE) 19:42:09 435.675
NOAA 18 28 Aug 19:36:34 19:40:19 18° 266° (W) 19:44:04 137.9125
DOVE 4 28 Aug 19:38:23 19:42:56 31° 264° (W) 19:47:38 437.250
GOMX 1 28 Aug 19:39:51 19:42:36 14° 270° (W) 19:45:26 467.674
Oscar 11 28 Aug 19:58:42 20:00:41 13° 66° (ENE) 20:02:41 145.826/435.025
Cosmos 2504 28 Aug 20:05:33 20:11:13 26° 275° (W) 20:16:55 435.465 / 435.565
FUNcube-1 28 Aug 20:07:04 20:09:44 16° 68° (ENE) 20:12:22 145.935
CINEMA 3 28 Aug 20:10:07 20:14:58 49° 261° (W) 20:19:49 145.822/145.860
SEEDS 28 Aug 20:11:07 20:15:16 87° 256° (WSW) 20:19:27 437.485
UWE-3 28 Aug 20:15:47 20:19:55 34° 72° (ENE) 20:23:57 435.000/436.395/437.385
AIST 1 28 Aug 20:16:32 20:20:55 64° 82° (E) 20:25:15
Cosmos 2491 28 Aug 20:17:18 20:22:48 18° 294° (WNW) 20:28:20 435.465 / 435.565
CUBEBUG 2 28 Aug 20:20:09 20:24:46 60° 76° (ENE) 20:29:18 437.445
ZACube-1 28 Aug 20:27:54 20:31:45 29° 71° (ENE) 20:35:32 437.345
PCSat 28 Aug 20:33:03 20:38:12 42° 58° (ENE) 20:43:19 145.827
DELFI C3 28 Aug 20:35:00 20:36:30 12° 66° (ENE) 20:38:01 145.870
CANX-2 28 Aug 20:35:58 20:39:28 25° 264° (W) 20:42:59 2200.000
AAUSAT CUBESAT 2 28 Aug 20:38:47 20:42:52 77° 257° (WSW) 20:47:00 437.432
CUTE 1.7 + AOD 2 28 Aug 20:41:50 20:45:19 25° 264° (W) 20:48:49 437.475
COMPASS 1 28 Aug 20:48:18 20:52:14 44° 261° (W) 20:56:12 437.405
STRAND 1 28 Aug 20:50:13 20:54:44 33° 290° (WNW) 20:59:15 437.568
HUMSAT D 28 Aug 21:05:12 21:07:21 14° 67° (ENE) 21:09:28 437.325/437.525
HO-68 28 Aug 21:17:51 21:23:10 22° 266° (W) 21:28:31 435.675
AIST 2 28 Aug 21:18:40 21:22:53 89° 227° (SW) 21:27:03 435.215
PRISM 28 Aug 21:22:11 21:26:22 68° 102° (ESE) 21:30:30 437.425
Oscar 11 28 Aug 21:32:13 21:36:22 48° 261° (W) 21:40:33 145.826/435.025
FUNcube-1 28 Aug 21:41:25 21:45:37 41° 261° (W) 21:49:46 145.935
UWE-3 28 Aug 21:53:06 21:56:23 19° 265° (W) 21:59:38 435.000/436.395/437.385
CUBEBUG 2 28 Aug 22:00:07 22:01:39 11° 268° (W) 22:03:13 437.445
ZACube-1 28 Aug 22:04:32 22:07:59 22° 265° (W) 22:11:24 437.345
TIGRISAT 28 Aug 22:06:25 22:09:18 18° 94° (E) 22:12:10 435.000
ESTCUBE 1 28 Aug 22:06:49 22:08:30 12° 64° (ENE) 22:10:10 437.505/2401.250
DELFI C3 28 Aug 22:07:11 22:10:55 43° 261° (W) 22:14:42 145.870
PCSat 28 Aug 22:17:07 22:21:17 23° 254° (WSW) 22:25:25 145.827
AUBIESAT-1 28 Aug 22:32:37 22:37:04 49° 69° (ENE) 22:41:32 437.475
UNISAT 6 28 Aug 22:34:32 22:38:35 41° 99° (E) 22:42:35 437.425
HUMSAT D 28 Aug 22:38:39 22:42:35 41° 261° (W) 22:46:31 437.325/437.525
M-CUBED/EXP-1 PRIME 28 Aug 22:39:13 22:43:51 72° 71° (ENE) 22:48:34 437.505
CUBEBUG 1 28 Aug 22:53:15 22:56:51 25° 69° (ENE) 23:00:27 437.445
O/OREOS (USA 219) 28 Aug 22:53:30 22:57:14 24° 62° (ENE) 23:00:56 437.305
GONETS M04 28 Aug 22:54:01 23:02:48 62° 80° (E) 23:11:30
VELOX 1 28 Aug 22:54:57 22:58:20 22° 68° (ENE) 23:01:44 145.980
SO-50 28 Aug 22:58:25 23:03:13 62° 117° (ESE) 23:07:59 436.795
Cosmos 2499 28 Aug 23:04:41 23:11:34 52° 79° (E) 23:18:33 435.465 / 435.565
POPSAT HIP 1 28 Aug 23:04:56 23:05:14 10° 91° (E) 23:05:31 437.405
SPROUT 28 Aug 23:06:09 23:08:18 14° 66° (ENE) 23:10:26 437.525
DX 1 28 Aug 23:07:52 23:11:04 20° 68° (ENE) 23:14:15 434.975-435.025
JAS-2 28 Aug 23:09:20 23:11:55 12° 90° (E) 23:14:33 435.910
ANTELSAT 28 Aug 23:11:19 23:15:34 70° 284° (WNW) 23:19:47 437.575/2403.000
DUCHIFAT 1 28 Aug 23:28:34 23:31:31 19° 94° (E) 23:34:28 145.980
QB50P2 28 Aug 23:32:45 23:36:18 26° 96° (E) 23:39:49 145.880/145.840
POLYITAN 1 28 Aug 23:35:16 23:38:49 26° 96° (E) 23:42:20 437.675
CUSAT 1 28 Aug 23:36:32 23:39:19 49° 282° (WNW) 23:42:43 437.405
ESTCUBE 1 28 Aug 23:40:21 23:44:45 58° 259° (W) 23:49:11 437.505/2401.250
PHONESAT 2.4 28 Aug 23:42:11 23:43:28 12° 144° (SE) 23:44:44 2401.200-2431.200
TIGRISAT 28 Aug 23:42:15 23:46:03 32° 288° (WNW) 23:49:49 435.000
NANOSAT C BR1 28 Aug 23:42:28 23:46:10 29° 97° (E) 23:49:49 145.865
AISAT 28 Aug 23:42:49 23:47:16 81° 75° (ENE) 23:51:45 437.250
UKube-1 28 Aug 23:44:44 23:48:45 40° 72° (ENE) 23:52:48 .
RS-15 29 Aug 00:03:41 00:13:53 40° 106° (ESE) 00:24:32 29.354- 29.394
50 SAT 29 Aug 00:08:30 00:11:54 42° 261° (W) 00:15:20 437.505
AUBIESAT-1 29 Aug 00:08:56 00:11:40 15° 263° (W) 00:14:24 437.475
UNISAT 6 29 Aug 00:12:34 00:14:56 15° 294° (WNW) 00:17:17 437.425
BUGSAT 1 29 Aug 00:17:34 00:21:08 28° 97° (E) 00:24:37 437.445
M-CUBED/EXP-1 PRIME 29 Aug 00:17:48 00:18:44 10° 265° (W) 00:19:39 437.505
QB50P1 29 Aug 00:26:58 00:31:11 72° 284° (WNW) 00:35:20 145.935-145.965
CUBEBUG 1 29 Aug 00:29:23 00:33:00 25° 264° (W) 00:36:40 437.445
VELOX 1 29 Aug 00:30:42 00:34:35 30° 263° (W) 00:38:31 145.980
O/OREOS (USA 219) 29 Aug 00:32:37 00:36:35 29° 257° (WSW) 00:40:32 437.305
POPSAT HIP 1 29 Aug 00:37:12 00:41:19 54° 286° (WNW) 00:45:24 437.405
SPROUT 29 Aug 00:39:39 00:43:48 47° 261° (W) 00:47:58 437.525
SO-50 29 Aug 00:40:56 00:44:05 17° 313° (NW) 00:47:13 436.795
DX 1 29 Aug 00:43:08 00:47:01 31° 262° (W) 00:50:56 434.975-435.025
DANDE 29 Aug 00:47:58 00:49:46 17° 286° (WNW) 00:51:38 436.750
JAS-2 29 Aug 00:50:28 00:57:30 80° 103° (ESE) 01:05:12 435.910
GONETS M04 29 Aug 00:52:06 00:58:52 25° 278° (W) 01:05:38
TISAT 1 29 Aug 00:53:30 00:57:35 47° 74° (ENE) 01:01:41 437.305
Cosmos 2499 29 Aug 00:58:56 01:04:08 22° 276° (W) 01:09:24 435.465 / 435.565
DUCHIFAT 1 29 Aug 01:03:34 01:07:14 30° 289° (WNW) 01:10:51 145.980
SWISSCUBE 29 Aug 01:08:03 01:10:47 15° 65° (ENE) 01:13:29 437.505
QB50P2 29 Aug 01:08:41 01:11:57 22° 291° (WNW) 01:15:12 145.880/145.840
POLYITAN 1 29 Aug 01:11:13 01:14:27 22° 291° (WNW) 01:17:39 437.675
PHONESAT 2.4 29 Aug 01:16:26 01:19:26 75° 157° (SSE) 01:22:26 2401.200-2431.200
Oscar 19 29 Aug 01:16:39 01:20:49 24° 95° (E) 01:24:58 437.125/150
NANOSAT C BR1 29 Aug 01:18:40 01:21:40 19° 292° (WNW) 01:24:39 145.865
UKube-1 29 Aug 01:22:27 01:24:56 15° 266° (W) 01:27:26 .
BEESAT 29 Aug 01:24:10 01:27:37 20° 67° (ENE) 01:31:04 436.000
BUGSAT 1 29 Aug 01:53:19 01:56:17 19° 292° (WNW) 01:59:12 437.445
ITUPSAT 1 29 Aug 02:11:08 02:15:50 63° 74° (ENE) 02:20:32 437.325
RS-15 29 Aug 02:14:32 02:25:49 57° 307° (NW) 02:37:46 29.354- 29.394
TISAT 1 29 Aug 02:31:45 02:33:27 12° 268° (W) 02:35:08 437.305
ITAMSAT 1 29 Aug 02:34:42 02:38:01 17° 93° (E) 02:41:19 435.822/435.867
JAS-2 29 Aug 02:37:19 02:41:53 19° 297° (WNW) 02:46:41 435.910
Gurwin Techsat 1B 29 Aug 02:38:05 02:43:23 70° 101° (ESE) 02:48:40 435.225
SWISSCUBE 29 Aug 02:43:30 02:48:06 50° 260° (W) 02:52:44 437.505
KKS-1 29 Aug 02:45:39 02:48:10 15° 66° (ENE) 02:50:42 437.445
PHONESAT 2.4 29 Aug 02:53:07 02:55:55 36° 353° (N) 02:58:44 2401.200-2431.200
AO-7 29 Aug 02:54:51 02:59:52 17° 92° (E) 03:04:50 29.400- 29.500
Oscar 19 29 Aug 02:55:27 03:00:10 36° 290° (WNW) 03:04:51 437.125/150
BEESAT 29 Aug 03:00:44 03:05:07 37° 262° (W) 03:09:32 436.000
MOZHAYETS 4 29 Aug 03:00:56 03:04:48 28° 70° (ENE) 03:08:40
STARS 29 Aug 03:17:10 03:19:49 16° 66° (ENE) 03:22:29 437.465
ITUPSAT 1 29 Aug 03:52:33 03:54:01 11° 268° (W) 03:55:29 437.325
ITAMSAT 1 29 Aug 04:12:44 04:17:43 49° 288° (WNW) 04:22:41 435.822/435.867
KKS-1 29 Aug 04:20:01 04:24:19 46° 260° (W) 04:28:38 437.445
Gurwin Techsat 1B 29 Aug 04:20:06 04:22:42 14° 298° (WNW) 04:25:17 435.225
CUBESAT XI-V 29 Aug 04:25:10 04:29:02 27° 70° (ENE) 04:32:56 437.345
PHONESAT 2.4 29 Aug 04:29:45 04:32:36 40° 10° (N) 04:35:28 2401.200-2431.200
Cosmos 2491 29 Aug 04:30:17 04:38:18 37° 74° (ENE) 04:46:17 435.465 / 435.565
RS-15 29 Aug 04:33:44 04:41:53 20° 336° (NNW) 04:50:15 29.354- 29.394
AO-85 29 Aug 04:36:36 04:41:51 59° 116° (ESE) 04:46:52 145.980
MOZHAYETS 4 29 Aug 04:38:14 04:41:54 24° 265° (W) 04:45:34
AO-7 29 Aug 04:45:05 04:53:25 85° 289° (WNW) 05:01:43 29.400- 29.500
STARS 29 Aug 04:51:35 04:55:47 42° 261° (W) 05:00:01 437.465
BRITE-PL 29 Aug 05:00:29 05:02:52 13° 89° (E) 05:05:12 437.365/2234.400
HORYU 2 29 Aug 05:35:42 05:40:05 61° 102° (ESE) 05:44:26 437.375
YUBILEINY 29 Aug 05:39:47 05:48:07 48° 89° (E) 05:56:26 435.215
CUBESAT XI-V 29 Aug 06:02:35 06:06:20 25° 265° (W) 06:10:09 437.345
GOMX 1 29 Aug 06:04:43 06:08:56 23° 93° (E) 06:12:57 467.674
PHONESAT 2.4 29 Aug 06:06:05 06:09:01 52° 206° (SSW) 06:11:55 2401.200-2431.200
AO-85 29 Aug 06:18:53 06:22:38 19° 311° (NW) 06:26:15 145.980
NOAA 18 29 Aug 06:19:22 06:23:55 26° 96° (E) 06:28:25 137.9125
STRAND 1 29 Aug 06:24:45 06:29:04 28° 69° (ENE) 06:33:23 437.568
Cosmos 2491 29 Aug 06:26:59 06:35:08 44° 272° (W) 06:43:18 435.465 / 435.565
BRITE-PL 29 Aug 06:36:09 06:41:52 76° 284° (WNW) 06:47:21 437.365/2234.400
AO-7 29 Aug 06:40:03 06:44:59 17° 307° (NW) 06:49:54 29.400- 29.500
LilacSat-2 29 Aug 06:40:19 06:43:59 51° 99° (E) 06:47:39 437.200
Cosmos 2504 29 Aug 06:45:31 06:53:26 46° 90° (E) 07:00:53 435.465 / 435.565
Cubesat XI-IV 29 Aug 06:53:14 06:58:32 66° 102° (ESE) 07:03:48 437.490
RS-15 29 Aug 06:54:15 07:01:29 17° 14° (NNE) 07:08:45 29.354- 29.394
NOAA 15 29 Aug 07:00:13 07:05:34 82° 285° (WNW) 07:10:53 137.62
HO-68 29 Aug 07:02:34 07:04:37 11° 89° (E) 07:06:41 435.675
CUTE-I 29 Aug 07:04:31 07:09:52 85° 104° (ESE) 07:15:11 437.470
HORYU 2 29 Aug 07:14:47 07:16:04 11° 296° (WNW) 07:17:21 437.375
SO-50 29 Aug 07:32:59 07:36:52 26° 51° (NE) 07:40:38 436.795
YUBILEINY 29 Aug 07:37:16 07:45:02 34° 287° (WNW) 07:52:51 435.215
DOVE 4 29 Aug 07:39:50 07:44:50 84° 283° (WNW) 07:49:30 437.250
ISS 29 Aug 07:40:34 07:43:49 67° 137° (SE) 07:47:05 145.825
GOMX 1 29 Aug 07:42:09 07:47:04 37° 289° (WNW) 07:51:43 467.674
SEEDS 29 Aug 07:58:28 08:01:26 18° 94° (E) 08:04:24 437.485
NOAA 18 29 Aug 07:59:38 08:04:34 35° 291° (WNW) 08:09:27 137.9125
STRAND 1 29 Aug 08:03:43 08:08:07 29° 263° (W) 08:12:33 437.568
CINEMA 3 29 Aug 08:07:59 08:12:18 48° 99° (E) 08:16:24 145.822/145.860
PRISM 29 Aug 08:09:05 08:12:44 32° 72° (ENE) 08:16:26 437.425
CUBEBUG 2 29 Aug 08:15:34 08:17:40 14° 92° (E) 08:19:45 437.445
CANX-2 29 Aug 08:22:38 08:26:51 63° 101° (E) 08:31:03 2200.000
AAUSAT CUBESAT 2 29 Aug 08:24:24 08:27:27 19° 95° (E) 08:30:29 437.432
CUTE 1.7 + AOD 2 29 Aug 08:28:22 08:32:35 64° 100° (E) 08:36:48 437.475
CUSAT 1 29 Aug 08:30:01 08:32:37 12° 68° (ENE) 08:35:21 437.405
COMPASS 1 29 Aug 08:33:39 08:37:26 32° 97° (E) 08:41:13 437.405
Cubesat XI-IV 29 Aug 08:35:12 08:38:00 15° 297° (WNW) 08:40:48 437.490
Cosmos 2504 29 Aug 08:39:27 08:46:51 33° 285° (WNW) 08:53:52 435.465 / 435.565
AIST 1 29 Aug 08:42:52 08:46:57 42° 92° (E) 08:51:06
HO-68 29 Aug 08:46:01 08:53:14 82° 106° (ESE) 09:00:23 435.675
BEESAT 2 29 Aug 08:47:00 08:50:06 22° 111° (ESE) 08:53:13 435.950
CUTE-I 29 Aug 08:47:42 08:49:08 11° 299° (WNW) 08:50:34 437.470
BEESAT 3 29 Aug 09:00:31 09:04:24 72° 117° (ESE) 09:08:19 437.485
TIGRISAT 29 Aug 09:03:26 09:05:37 13° 66° (ENE) 09:07:45 435.000
RS-15 29 Aug 09:07:18 09:18:51 42° 46° (NE) 09:30:09 29.354- 29.394
SO-50 29 Aug 09:13:20 09:17:17 29° 248° (WSW) 09:21:08 436.795
ISS 29 Aug 09:18:30 09:20:35 16° 333° (NNW) 09:22:40 145.825
Oscar 11 29 Aug 09:22:02 09:26:00 35° 98° (E) 09:29:56 145.826/435.025
JUGNU 29 Aug 09:22:48 09:22:57 10° 166° (SSE) 09:23:04 437.505
UNISAT 6 29 Aug 09:30:42 09:34:38 28° 71° (ENE) 09:38:29 437.425
FUNcube-1 29 Aug 09:31:57 09:35:53 41° 99° (E) 09:39:47 145.935
SEEDS 29 Aug 09:33:26 09:37:08 30° 288° (WNW) 09:40:51 437.485
DANDE 29 Aug 09:42:00 09:45:56 18° 74° (ENE) 09:50:24 436.750
UWE-3 29 Aug 09:44:01 09:48:11 75° 284° (WNW) 09:52:18 435.000/436.395/437.385
PRISM 29 Aug 09:45:30 09:48:06 16° 266° (W) 09:50:44 437.425
CINEMA 3 29 Aug 09:46:48 09:48:56 13° 295° (WNW) 09:51:01 145.822/145.860
DELFI C3 29 Aug 09:47:25 09:50:49 26° 96° (E) 09:54:13 145.870
CUBEBUG 2 29 Aug 09:50:33 09:54:29 39° 287° (WNW) 09:58:19 437.445
ZACube-1 29 Aug 09:54:20 09:58:30 88° 95° (E) 10:02:38 437.345
AAUSAT CUBESAT 2 29 Aug 09:59:19 10:02:54 28° 289° (WNW) 10:06:29 437.432
GONETS M04 29 Aug 10:01:55 10:04:39 12° 76° (ENE) 10:07:23
ANTELSAT 29 Aug 10:06:49 10:11:24 72° 77° (ENE) 10:15:55 437.575/2403.000
CUSAT 1 29 Aug 10:08:26 10:15:15 74° 81° (E) 10:23:10 437.405
COMPASS 1 29 Aug 10:09:55 10:12:43 18° 292° (WNW) 10:15:32 437.405
DUCHIFAT 1 29 Aug 10:20:00 10:20:57 11° 65° (ENE) 10:21:53 145.980
AIST 1 29 Aug 10:22:34 10:24:47 14° 288° (WNW) 10:27:00
QB50P2 29 Aug 10:23:49 10:26:16 15° 67° (ENE) 10:28:42 145.880/145.840
BEESAT 2 29 Aug 10:24:27 10:27:47 26° 307° (NW) 10:31:10 435.950
HUMSAT D 29 Aug 10:24:31 10:28:15 34° 98° (E) 10:32:00 437.325/437.525
POLYITAN 1 29 Aug 10:26:17 10:28:46 15° 67° (ENE) 10:31:16 437.675
NANOSAT C BR1 29 Aug 10:32:50 10:35:33 17° 67° (ENE) 10:38:16 145.865
HO-68 29 Aug 10:35:39 10:40:02 18° 302° (WNW) 10:44:27 435.675
TIGRISAT 29 Aug 10:37:19 10:41:50 54° 260° (W) 10:46:16 435.000
BEESAT 3 29 Aug 10:41:48 10:42:31 10° 315° (NW) 10:43:16 437.485
Oscar 11 29 Aug 10:58:58 11:01:50 18° 292° (WNW) 11:04:41 145.826/435.025
JAS-2 29 Aug 11:02:38 11:06:28 21° 64° (ENE) 11:10:29 435.910
BUGSAT 1 29 Aug 11:05:35 11:08:05 15° 67° (ENE) 11:10:35 437.445
UNISAT 6 29 Aug 11:07:33 11:11:16 24° 264° (W) 11:14:56 437.425
JUGNU 29 Aug 11:07:46 11:11:09 15° 176° (S) 11:14:30 437.505
FUNcube-1 29 Aug 11:09:42 11:11:45 14° 293° (WNW) 11:13:47 145.935
PCSat 29 Aug 11:11:36 11:16:58 68° 113° (ESE) 11:22:21 145.827
AIST 2 29 Aug 11:13:45 11:17:28 35° 114° (ESE) 11:21:15 435.215
QB50P1 29 Aug 11:16:19 11:20:31 57° 75° (ENE) 11:24:43 145.935-145.965
RS-15 29 Aug 11:19:50 11:31:53 61° 249° (WSW) 11:43:36 29.354- 29.394
DELFI C3 29 Aug 11:22:34 11:25:28 20° 291° (WNW) 11:28:23 145.870
DANDE 29 Aug 11:22:53 11:28:43 70° 264° (W) 11:36:12 436.750
POPSAT HIP 1 29 Aug 11:26:26 11:30:43 76° 76° (ENE) 11:35:00 437.405
ESTCUBE 1 29 Aug 11:35:33 11:39:42 34° 98° (E) 11:43:50 437.505/2401.250
AISAT 29 Aug 11:36:38 11:39:47 19° 94° (E) 11:42:53 437.250
Cosmos 2499 29 Aug 11:37:20 11:45:07 49° 91° (E) 11:52:22 435.465 / 435.565
50 SAT 29 Aug 11:39:59 11:42:22 17° 95° (E) 11:44:47 437.505
AUBIESAT-1 29 Aug 11:48:57 11:52:46 49° 104° (ESE) 11:56:17 437.475
GONETS M04 29 Aug 11:51:08 11:59:50 77° 94° (E) 12:08:39
DUCHIFAT 1 29 Aug 11:51:54 11:56:06 59° 260° (W) 12:00:19 145.980
CUSAT 1 29 Aug 11:52:04 11:56:49 20° 273° (W) 12:01:58 437.405
M-CUBED/EXP-1 PRIME 29 Aug 11:56:16 12:00:18 81° 107° (ESE) 12:03:58 437.505
QB50P2 29 Aug 11:57:39 12:01:41 41° 261° (W) 12:05:45 145.880/145.840
POLYITAN 1 29 Aug 12:00:10 12:04:12 40° 261° (W) 12:08:15 437.675
HUMSAT D 29 Aug 12:01:03 12:03:35 16° 292° (WNW) 12:06:06 437.325/437.525
NANOSAT C BR1 29 Aug 12:07:02 12:10:57 36° 262° (W) 12:14:54 145.865
CUBEBUG 1 29 Aug 12:19:38 12:24:03 72° 101° (E) 12:28:26 437.445
VELOX 1 29 Aug 12:22:44 12:27:10 61° 101° (E) 12:31:32 145.980
SPROUT 29 Aug 12:28:16 12:32:10 34° 98° (E) 12:36:01 437.525
Oscar 19 29 Aug 12:30:56 12:35:13 27° 68° (ENE) 12:39:33 437.125/150
DX 1 29 Aug 12:33:21 12:37:39 52° 101° (E) 12:41:54 434.975-435.025
BUGSAT 1 29 Aug 12:39:05 12:43:05 40° 261° (W) 12:47:06 437.445
JAS-2 29 Aug 12:46:23 12:51:14 40° 262° (W) 12:56:22 435.910
SRMSAT 29 Aug 12:48:54 12:51:49 14° 172° (S) 12:54:41 437.500
AIST 2 29 Aug 12:53:03 12:56:02 19° 310° (NW) 12:59:04 435.215
JUGNU 29 Aug 12:56:12 12:59:22 15° 186° (S) 13:02:33 437.505
PCSat 29 Aug 12:57:23 13:00:52 17° 311° (NW) 13:04:21 145.827
O/OREOS (USA 219) 29 Aug 13:02:36 13:06:49 43° 105° (ESE) 13:11:05 437.305
UKube-1 29 Aug 13:09:57 13:14:17 75° 284° (WNW) 13:18:35 .
AO-85 29 Aug 13:12:10 13:15:25 21° 49° (NE) 13:18:30 145.980
AISAT 29 Aug 13:12:16 13:16:18 34° 289° (WNW) 13:20:17 437.250
50 SAT 29 Aug 13:12:54 13:15:54 25° 289° (WNW) 13:18:56 437.505
ESTCUBE 1 29 Aug 13:12:59 13:16:15 20° 292° (WNW) 13:19:30 437.505/2401.250
AUBIESAT-1 29 Aug 13:25:34 13:26:40 11° 301° (WNW) 13:27:45 437.475
Cosmos 2499 29 Aug 13:31:31 13:38:21 29° 286° (WNW) 13:44:49 435.465 / 435.565
ITAMSAT 1 29 Aug 13:50:06 13:53:55 21° 66° (ENE) 13:57:44 435.822/435.867
AO-7 29 Aug 13:51:18 13:57:12 22° 56° (NE) 14:03:03 29.400- 29.500
GONETS M04 29 Aug 13:51:29 13:57:34 20° 293° (WNW) 14:03:42
Gurwin Techsat 1B 29 Aug 13:56:25 14:01:43 84° 75° (ENE) 14:07:04 435.225
VELOX 1 29 Aug 14:01:36 14:03:03 11° 296° (WNW) 14:04:30 145.980
SPROUT 29 Aug 14:04:58 14:07:49 18° 292° (WNW) 14:10:40 437.525
Oscar 19 29 Aug 14:09:50 14:14:23 31° 263° (W) 14:18:59 437.125/150
ISS 29 Aug 14:10:47 14:13:38 26° 33° (NNE) 14:16:28 145.825
DX 1 29 Aug 14:11:23 14:13:21 13° 295° (WNW) 14:15:18 434.975-435.025
ITUPSAT 1 29 Aug 14:15:09 14:18:36 20° 95° (E) 14:22:03 437.325
TISAT 1 29 Aug 14:15:22 14:19:32 64° 285° (WNW) 14:23:39 437.305
SRMSAT 29 Aug 14:36:48 14:40:11 16° 182° (S) 14:43:34 437.500
O/OREOS (USA 219) 29 Aug 14:43:34 14:46:26 16° 302° (WNW) 14:49:18 437.305
SWISSCUBE 29 Aug 14:46:08 14:50:46 49° 100° (E) 14:55:22 437.505
AO-85 29 Aug 14:52:16 14:55:52 29° 248° (WSW) 14:59:17 145.980
BEESAT 29 Aug 15:02:56 15:07:42 68° 102° (ESE) 15:12:25 436.000
ITAMSAT 1 29 Aug 15:28:11 15:33:03 42° 261° (W) 15:37:58 435.822/435.867
AO-7 29 Aug 15:40:39 15:49:01 80° 253° (WSW) 15:57:25 29.400- 29.500
ISS 29 Aug 15:47:14 15:50:04 27° 228° (SW) 15:52:53 145.825
ITUPSAT 1 29 Aug 15:52:08 15:56:30 37° 289° (WNW) 16:00:53 437.325
YUBILEINY 29 Aug 15:54:28 16:00:28 20° 67° (ENE) 16:06:23 435.215
KKS-1 29 Aug 16:13:32 16:17:43 39° 99° (E) 16:21:52 437.445
SWISSCUBE 29 Aug 16:25:18 16:28:07 16° 295° (WNW) 16:30:57 437.505
SRMSAT 29 Aug 16:26:53 16:28:32 11° 192° (SSW) 16:30:10 437.500
HORYU 2 29 Aug 16:30:59 16:35:10 40° 72° (ENE) 16:39:19 437.375
